Lid_Strength_Index
5 5 5 5 4 4 4 4 3 3 2 2 2 1 1 1 1 5 7 6 6 9 8 7 6 8 8 9 10 9 10 10 10 12 13 14 14 13 14 13 14 15 18 19 18 18 20 10 11 15 13 11 10 10
5 5 5 5 5 5 4 3 3 3 2 2 2 1 1 1 1 3 5 5 5 6 6 6 5 4 5 6 7 9 9 10 9 11 11 12 13 14 15 16 11 15 15 16 18 18 12 10 11 10 10 10 10 10
5 5 5 5 5 4 4 3 3 3 2 2 2 1 1 1 1 3 5 5 5 7 6 6 5 3 3 5 5 9 9 7 8 7 10 11 13 12 15 14 13 11 11 13 14 11 10 9 8 8 8 9 8 8
5 5 5 5 4 4 4 3 3 3 3 2 2 1 1 1 1 1 3 4 5 7 9 7 3 4 3 4 5 6 7 8 8 8 10 11 13 10 12 12 13 12 11 12 12 10 9 9 8 8 7 6 7 7
5 5 5 5 4 4 4 3 3 3 2 2 1 1 1 1 1 3 5 5 5 6 9 8 6 4 4 3 4 5 7 9 10 10 10 12 10 12 13 13 14 11 12 14 14 10 11 10 8 6 7 7 6 7
6 6 5 4 4 4 4 4 3 3 2 2 1 1 0 0 1 5 7 6 4 5 8 10 7 6 4 4 5 5 6 9 9 10 11 10 9 11 14 17 10 9 9 10 10 8 8 7 6 5 6 6 6 6
6 6 5 4 4 4 4 3 3 3 2 2 1 1 0 1 4 7 8 5 3 5 7 10 10 6 5 6 6 6 7 8 9 10 11 11 11 11 16 18 10 8 8 7 7 6 8 6 7 5 5 5 4 5
6 5 5 5 4 4 4 3 3 3 2 2 1 1 1 2 3 5 5 2 3 6 7 10 10 8 5 8 9 8 8 8 8 11 10 11 11 13 16 10 9 7 7 7 6 6 6 6 6 6 5 6 6 7
6 5 5 5 5 4 4 4 3 3 3 2 1 1 3 4 6 6 1 1 4 5 8 10 13 13 7 9 9 8 9 11 9 11 11 11 11 15 11 10 9 7 7 7 5 4 4 6 6 6 5 7 7 7
6 5 5 5 5 4 4 4 3 3 3 2 3 5 7 6 1 1 5 6 6 7 7 9 9 12 8 9 9 10 10 13 14 11 10 11 10 7 7 7 7 6 5 5 7 7 6 6 6 6 7 7 6 7
6 5 5 5 4 4 4 3 3 3 3 6 7 7 5 2 5 6 8 8 8 10 9 8 9 10 7 10 10 8 11 10 14 12 11 12 14 10 7 7 6 5 5 5 5 5 5 5 4 4 5 5 5 5
6 5 5 5 4 4 3 3 3 6 6 5 6 5 5 6 7 8 10 9 9 10 8 9 8 8 9 8 9 8 11 9 13 10 14 19 12 8 6 6 6 5 5 5 5 5 4 4 3 3 3 3 3 4
6 5 5 4 4 4 4 3 3 3 3 4 6 7 8 8 11 11 12 11 12 9 8 8 9 9 9 8 9 9 11 12 9 14 19 15 10 8 6 6 6 5 5 5 4 4 4 3 3 2 3 3 3 3
6 5 5 4 4 4 4 4 3 4 4 5 7 12 10 11 10 11 10 10 8 8 8 9 9 9 9 9 9 12 10 11 15 18 16 11 8 7 5 4 4 5 4 4 4 3 3 3 3 3 3 3 3 3
5 5 5 4 4 4 4 4 3 4 4 6 7 12 10 8 8 8 8 8 7 7 8 9 9 9 9 10 9 10 12 15 18 17 12 9 8 6 5 4 5 5 6 4 4 4 3 4 3 3 3 3 3 3
5 5 6 5 5 4 4 4 4 3 4 6 8 9 9 9 9 9 9 8 7 8 8 9 10 10 11 11 11 12 14 18 14 11 9 8 7 7 6 5 5 5 5 5 5 4 4 4 4 4 3 3 3 3
6 8 5 5 5 5 5 5 5 5 7 8 9 8 8 9 9 9 9 8 7 8 9 10 11 12 10 12 12 13 14 11 9 8 8 8 7 7 6 6 5 5 5 5 5 5 5 4 4 5 5 4 4 3
10 8 6 5 5 6 6 5 6 6 9 9 9 8 8 8 8 8 8 7 8 8 9 10 9 11 13 13 15 12 10 8 8 8 7 7 7 7 6 6 6 5 5 5 5 5 5 5 5 5 5 5 5 4
8 7 5 5 6 8 6 6 6 9 9 9 9 9 8 7 7 7 7 6 6 6 8 9 11 13 13 11 11 9 8 8 8 7 7 6 6 6 5 5 5 5 5 5 6 6 6 5 5 5 6 5 5 4
6 5 5 5 5 7 8 8 7 9 10 10 10 9 8 7 7 6 6 6 7 8 9 10 11 10 9 8 7 7 7 7 7 7 7 6 6 5 5 5 5 5 6 6 6 6 6 5 5 5 5 5 4 4
6 5 5 6 6 7 8 9 10 9 10 10 10 10 9 7 7 7 7 7 8 9 9 8 7 7 5 6 6 7 6 6 7 6 6 7 7 6 6 6 5 5 5 6 5 4 5 5 5 4 4 4 4 3
8 5 7 6 7 8 9 9 10 11 11 10 10 10 10 10 9 8 7 8 8 7 7 7 6 5 6 5 5 5 5 5 5 5 5 6 6 5 4 4 4 5 5 5 4 5 6 6 5 4 4 4 4 4
6 7 7 6 9 13 13 10 11 10 11 12 10 11 10 9 8 6 8 7 7 6 6 6 5 5 6 5 4 4 4 5 5 5 3 3 3 3 3 3 4 5 5 7 6 6 6 7 5 5 4 5 5 5
6 8 10 10 12 14 10 11 10 11 11 12 12 13 12 10 7 8 9 8 6 5 6 6 5 6 6 6 7 6 5 5 5 4 3 4 4 4 4 4 6 6 7 6 6 6 6 6 6 5 5 5 5 5
12 13 13 17 12 12 11 11 11 12 12 11 12 12 11 8 9 10 9 8 7 6 6 5 6 6 6 6 6 6 5 4 5 5 4 4 5 8 8 8 7 7 6 6 6 6 5 5 5 5 5 5 5 5
17 12 14 12 11 13 12 12 12 12 11 12 11 10 10 10 10 10 8 7 6 5 5 5 5 6 6 6 6 6 5 4 5 5 4 4 5 7 8 8 8 7 7 6 6 5 5 5 5 5 5 5 7 5
16 13 12 11 11 10 11 11 11 12 12 12 11 11 11 12 11 8 6 5 5 5 4 4 4 4 5 5 5 5 4 4 4 4 4 4 4 4 6 6 7 6 6 6 5 5 5 5 5 5 5 4 5 5
12 12 13 13 12 11 12 11 11 11 11 10 10 11 11 11 11 8 6 4 4 3 4 4 4 4 5 5 4 4 4 3 3 3 3 5 5 5 4 3 4 8 5 4 4 4 4 4 4 4 4 4 4 4
13 12 12 13 12 12 11 11 10 9 8 9 10 10 9 7 6 5 5 4 4 4 4 5 5 4 4 4 4 4 4 4 5 5 5 5 5 5 5 4 5 4 5 5 8 6 4 4 4 4 3 4 4 4
13 12 13 12 12 13 11 10 10 8 7 7 7 7 7 6 4 4 4 4 5 5 4 4 4 4 5 4 5 4 3 3 4 4 5 5 5 4 4 4 4 4 4 4 5 5 8 5 6 4 4 4 5 5
11 12 12 12 12 11 10 8 7 7 7 7 7 7 6 6 5 4 4 3 4 4 4 4 4 4 4 4 4 4 5 3 3 2 3 4 4 4 4 4 4 4 4 4 4 4 4 4 4 4 4 4 4 5
11 11 12 12 11 9 8 8 8 8 8 8 8 7 7 7 7 6 3 3 3 3 5 4 4 3 2 3 3 3 6 3 3 2 4 4 4 4 4 4 4 3 4 4 4 4 4 4 4 4 3 3 3 3
11 11 11 11 10 10 8 8 8 8 8 8 8 7 7 7 7 5 2 1 2 3 3 3 3 3 3 2 2 3 5 3 4 7 8 7 7 6 5 4 4 4 4 4 3 3 4 4 4 3 3 3 2 2